contact:dominique.lefevre@mio.osupytheas.fr, maurice.libes@osupytheas.fr
Project:EMSO Ligure-ouest http://www.emso-fr.org/EMSO-France
Sensor Aquadopp, line 13 Serial AQD14315 
DOI : "https://doi.org/10.17882/74513; https://doi.org/10.17882/83244" 
Title:EMSO Ligure Ouest : Data ligne ALBATROSS capteur AQUADOPP - deploiement 2021
Id,Date,Profondeur,Latitude,Longitude,X_East,Y_North,Z_Up,Amplitude_X,Amplitude_Y,Amplitude_Z,Batterie,SoundSpeed,Heading,Pitch,Roll,Pressure,Temperature,Speed,Direction
, , m, degrees North, degrees East, m.s-1, m.s-1,m.s-1, 1, 1, 1, Volt, m.s-1, degree, degree, degree, dbar, degree_C, m.s-1, degree
07,2022-07-24T23:30:00,1500.0,42.79,6.0312,0.018,-0.017,-0.009,47.0,50.0,50.0,13.2,1504.1,338.1,0.1,0.7,1475.13,13.12,0.024,133.4
07,2022-07-25T00:00:00,1500.0,42.79,6.0312,0.026,-0.015,0.003,50.0,51.0,51.0,13.2,1504.1,334.7,0.2,0.8,1475.156,13.12,0.03,120.0
07,2022-07-25T00:30:00,1500.0,42.79,6.0312,0.022,0.001,0.006,49.0,49.0,51.0,13.2,1504.1,335.9,0.2,0.9,1475.154,13.12,0.022,87.4
07,2022-07-25T01:00:00,1500.0,42.79,6.0312,0.036,-0.014,0.018,47.0,48.0,49.0,13.2,1504.1,336.5,0.1,1.1,1475.134,13.12,0.038,111.2
07,2022-07-25T01:30:00,1500.0,42.79,6.0312,0.026,-0.02,0.006,48.0,50.0,49.0,13.2,1504.1,336.7,0.3,0.7,1475.158,13.12,0.032,127.6
07,2022-07-25T02:00:00,1500.0,42.79,6.0312,0.037,-0.015,0.007,48.0,51.0,50.0,13.2,1504.1,328.4,0.1,0.9,1475.118,13.12,0.039,112.1
07,2022-07-25T02:30:00,1500.0,42.79,6.0312,0.03,-0.013,-0.009,50.0,51.0,50.0,13.2,1504.1,318.6,0.1,0.7,1475.155,13.12,0.032,113.4
07,2022-07-25T03:00:00,1500.0,42.79,6.0312,0.041,-0.02,0.002,49.0,51.0,50.0,13.2,1504.1,319.2,0.0,1.0,1475.167,13.12,0.045,116.0
07,2022-07-25T03:30:00,1500.0,42.79,6.0312,0.03,-0.012,0.011,49.0,50.0,49.0,13.2,1504.1,310.8,0.1,1.0,1475.151,13.12,0.032,111.8
07,2022-07-25T04:00:00,1500.0,42.79,6.0312,0.029,-0.016,-0.007,48.0,51.0,52.0,13.2,1504.1,310.3,0.0,1.1,1475.202,13.12,0.033,118.9
07,2022-07-25T04:30:00,1500.0,42.79,6.0312,0.03,-0.013,-0.006,48.0,52.0,48.0,13.2,1504.1,309.3,0.2,0.7,1475.19,13.12,0.032,113.4
07,2022-07-25T05:00:00,1500.0,42.79,6.0312,0.029,-0.021,-0.014,50.0,50.0,49.0,13.2,1504.1,319.7,0.1,1.1,1475.193,13.12,0.035,125.9
07,2022-07-25T05:30:00,1500.0,42.79,6.0312,0.02,-0.026,0.002,48.0,50.0,48.0,13.2,1504.1,318.7,0.1,1.0,1475.18,13.12,0.032,142.4
07,2022-07-25T06:00:00,1500.0,42.79,6.0312,0.025,-0.023,-0.007,47.0,48.0,48.0,13.2,1504.1,321.1,0.3,1.0,1475.191,13.12,0.033,132.6
07,2022-07-25T06:30:00,1500.0,42.79,6.0312,0.028,-0.022,0.002,48.0,49.0,50.0,13.2,1504.1,327.5,0.4,1.0,1475.186,13.12,0.035,128.2
07,2022-07-25T07:00:00,1500.0,42.79,6.0312,0.013,-0.012,0.009,48.0,50.0,48.0,13.2,1504.1,326.8,-0.1,0.7,1475.168,13.12,0.017,132.7
07,2022-07-25T07:30:00,1500.0,42.79,6.0312,0.014,-0.022,-0.007,49.0,52.0,51.0,13.2,1504.1,333.3,0.2,0.7,1475.166,13.12,0.026,147.5
07,2022-07-25T08:00:00,1500.0,42.79,6.0312,0.032,-0.028,0.005,49.0,50.0,47.0,13.2,1504.1,336.9,-0.1,1.0,1475.152,13.12,0.042,131.2
07,2022-07-25T08:30:00,1500.0,42.79,6.0312,0.021,-0.016,0.004,49.0,51.0,49.0,13.2,1504.1,343.9,-0.2,0.9,1475.129,13.12,0.026,127.3
07,2022-07-25T09:00:00,1500.0,42.79,6.0312,0.025,-0.013,0.016,48.0,49.0,50.0,13.2,1504.1,347.8,0.2,0.8,1475.117,13.12,0.028,117.5
07,2022-07-25T09:30:00,1500.0,42.79,6.0312,0.016,-0.007,0.009,48.0,51.0,50.0,13.2,1504.1,350.2,0.2,0.7,1475.105,13.12,0.017,113.6
07,2022-07-25T10:00:00,1500.0,42.79,6.0312,0.021,-0.011,0.003,49.0,51.0,49.0,13.2,1504.1,355.3,0.2,0.7,1475.101,13.13,0.023,117.6
07,2022-07-25T10:30:00,1500.0,42.79,6.0312,0.024,-0.005,-0.001,48.0,51.0,48.0,13.2,1504.1,357.6,0.1,0.7,1475.105,13.13,0.024,101.8
07,2022-07-25T11:00:00,1500.0,42.79,6.0312,0.026,-0.027,0.007,48.0,51.0,50.0,13.2,1504.1,1.9,0.3,1.1,1475.107,13.13,0.037,136.1
07,2022-07-25T11:30:00,1500.0,42.79,6.0312,0.032,-0.018,-0.004,48.0,49.0,48.0,13.2,1504.1,5.3,-0.2,1.0,1475.056,13.13,0.036,119.4
07,2022-07-25T12:00:00,1500.0,42.79,6.0312,0.02,-0.007,-0.001,49.0,51.0,49.0,13.2,1504.1,6.5,-0.2,0.8,1475.082,13.13,0.021,109.3
07,2022-07-25T12:30:00,1500.0,42.79,6.0312,0.01,-0.019,-0.014,51.0,50.0,50.0,13.2,1504.1,13.6,0.2,0.8,1475.076,13.13,0.021,152.2
07,2022-07-25T13:00:00,1500.0,42.79,6.0312,0.023,-0.007,-0.002,48.0,50.0,50.0,13.2,1504.1,23.2,-0.1,0.9,1475.096,13.13,0.024,106.9
07,2022-07-25T13:30:00,1500.0,42.79,6.0312,0.022,-0.02,0.002,48.0,49.0,49.0,13.2,1504.1,39.0,0.1,1.0,1475.096,13.13,0.029,132.3
07,2022-07-25T14:00:00,1500.0,42.79,6.0312,0.019,-0.015,-0.016,49.0,49.0,49.0,13.2,1504.1,22.8,0.3,1.0,1475.154,13.12,0.024,128.3
07,2022-07-25T14:30:00,1500.0,42.79,6.0312,0.021,-0.001,-0.001,50.0,49.0,48.0,13.2,1504.1,37.2,-0.1,0.8,1475.122,13.13,0.021,92.7
07,2022-07-25T15:00:00,1500.0,42.79,6.0312,0.017,-0.013,0.015,49.0,48.0,52.0,13.2,1504.1,37.4,-0.2,0.9,1475.143,13.13,0.021,127.4
07,2022-07-25T15:30:00,1500.0,42.79,6.0312,0.019,0.001,0.005,49.0,49.0,49.0,13.2,1504.1,64.6,-0.1,0.9,1475.175,13.13,0.019,87.0
07,2022-07-25T16:00:00,1500.0,42.79,6.0312,0.035,-0.007,-0.006,51.0,51.0,50.0,13.2,1504.1,219.6,0.0,0.7,1475.195,13.12,0.035,101.3
07,2022-07-25T16:30:00,1500.0,42.79,6.0312,0.031,-0.012,0.025,46.0,52.0,50.0,13.2,1504.1,213.4,0.2,1.0,1475.213,13.12,0.033,111.2
07,2022-07-25T17:00:00,1500.0,42.79,6.0312,0.024,-0.004,-0.004,50.0,48.0,47.0,13.2,1504.1,216.2,0.2,0.8,1475.224,13.12,0.024,99.5
07,2022-07-25T17:30:00,1500.0,42.79,6.0312,0.023,-0.001,0.018,48.0,48.0,49.0,13.2,1504.1,215.3,0.1,0.9,1475.212,13.12,0.023,92.5
07,2022-07-25T18:00:00,1500.0,42.79,6.0312,0.021,0.0,0.014,50.0,49.0,51.0,13.2,1504.1,214.6,-0.1,0.7,1475.225,13.12,0.021,90.0
07,2022-07-25T18:30:00,1500.0,42.79,6.0312,0.017,-0.012,0.004,48.0,49.0,47.0,13.2,1504.1,216.7,-0.1,0.7,1475.22,13.12,0.02,125.2
07,2022-07-25T19:00:00,1500.0,42.79,6.0312,0.014,-0.005,0.003,48.0,50.0,49.0,13.2,1504.1,219.3,0.2,0.7,1475.226,13.12,0.014,109.6
07,2022-07-25T19:30:00,1500.0,42.79,6.0312,0.026,-0.004,0.007,48.0,49.0,51.0,13.2,1504.1,226.3,0.2,1.0,1475.237,13.12,0.026,98.7
07,2022-07-25T20:00:00,1500.0,42.79,6.0312,0.027,-0.015,0.01,47.0,52.0,48.0,13.2,1504.1,229.9,0.0,0.9,1475.23,13.12,0.03,119.1
07,2022-07-25T20:30:00,1500.0,42.79,6.0312,0.019,-0.008,0.007,48.0,50.0,50.0,13.2,1504.1,235.3,0.2,0.8,1475.204,13.12,0.02,112.8
07,2022-07-25T21:00:00,1500.0,42.79,6.0312,0.02,-0.014,0.002,50.0,49.0,48.0,13.2,1504.1,240.3,-0.1,0.9,1475.212,13.13,0.024,125.0
07,2022-07-25T21:30:00,1500.0,42.79,6.0312,0.028,-0.01,0.006,49.0,50.0,48.0,13.2,1504.1,238.2,0.0,0.7,1475.218,13.13,0.029,109.6
07,2022-07-25T22:00:00,1500.0,42.79,6.0312,0.024,-0.009,0.0,48.0,49.0,49.0,13.2,1504.1,240.1,0.1,0.7,1475.182,13.13,0.025,110.6
07,2022-07-25T22:30:00,1500.0,42.79,6.0312,0.014,-0.009,-0.007,48.0,47.0,49.0,13.2,1504.1,240.6,0.1,0.8,1475.149,13.13,0.016,122.7
07,2022-07-25T23:00:00,1500.0,42.79,6.0312,0.015,-0.015,-0.001,49.0,48.0,50.0,13.2,1504.1,241.6,0.2,0.7,1475.144,13.13,0.021,135.0
